Theta_e
328 322 316 313 321 318 309 304 297 294 296 290 285 285 288 293 292 293 294 296 294 298 300 302 300 302 301 301 306 310 315 299 299 295 295 308 330 337 338 340 341 342 341 343 344 344 345 346 349 348 350 350 350 350 348 348 347 347 345 345 345 343 342 341 341 340 340 340 340 339 339 339 339 339 342 348 348 347 347 344 343 343 342 342 342 342 341 339 340 341 340 341 343 342 342 342 341
325 320 315 316 316 311 305 301 292 290 285 285 289 288 292 292 293 292 293 293 294 300 299 303 310 311 312 315 317 315 312 318 317 311 326 332 335 336 339 341 342 341 341 342 344 344 343 346 348 349 349 349 350 349 348 348 347 346 346 345 344 344 344 343 342 341 340 340 339 339 339 339 339 339 348 347 347 347 346 343 342 341 340 340 340 340 340 340 339 339 339 342 342 342 342 341 340
325 318 313 313 311 308 304 300 295 284 285 283 285 287 293 292 293 294 295 297 298 300 299 304 305 304 304 307 309 305 302 324 325 324 325 334 331 333 340 342 342 341 342 342 343 344 343 344 346 349 350 350 349 348 348 347 347 346 346 345 344 343 342 342 341 340 340 340 340 339 339 339 338 341 346 345 346 345 344 344 343 342 342 341 340 340 339 340 339 339 339 342 342 342 342 342 340
317 318 316 309 307 305 298 293 289 286 287 282 286 291 293 293 294 295 296 298 298 297 299 302 299 303 309 309 312 318 315 319 324 325 326 331 331 337 341 342 341 342 342 343 343 343 343 344 346 349 349 349 348 348 348 347 347 346 346 346 344 342 341 342 342 342 341 341 340 339 339 339 339 342 344 345 345 343 343 341 340 340 340 340 338 337 338 337 337 338 339 341 342 342 342 341 340
317 319 315 308 304 303 297 294 287 283 284 284 285 288 294 294 295 296 298 298 298 298 299 301 298 303 309 313 310 307 311 320 326 328 327 329 338 340 341 341 341 341 341 342 343 343 343 343 346 348 349 348 348 348 347 347 346 346 346 345 345 343 342 342 342 341 340 339 340 339 339 338 338 340 341 341 342 342 342 343 342 341 341 342 340 339 340 338 337 337 338 341 341 342 343 341 339
317 317 316 309 304 305 295 289 289 286 287 287 289 293 294 296 296 295 298 298 299 298 298 298 299 300 308 310 311 312 320 318 324 327 328 332 338 341 341 340 341 340 341 341 342 342 343 342 346 347 349 349 348 347 347 346 346 346 345 345 345 345 343 343 341 341 341 341 339 339 339 339 338 338 341 342 342 341 341 344 344 344 341 338 337 337 337 337 338 339 340 340 341 342 342 342 340
314 309 308 303 304 300 293 286 286 286 292 291 293 294 297 296 296 296 296 298 299 297 297 301 306 305 307 310 312 318 321 323 326 327 331 335 338 340 340 340 340 340 340 341 341 342 342 341 347 349 349 349 348 347 347 346 346 346 345 345 345 345 342 341 341 341 341 341 340 339 338 338 338 340 341 342 341 340 340 341 341 342 341 340 339 339 338 337 337 340 340 340 341 341 341 341 340
318 308 306 296 295 293 289 287 289 285 293 294 295 298 296 296 295 295 295 293 296 295 298 299 300 299 300 310 307 317 324 327 327 331 334 336 338 338 339 340 339 339 340 340 341 341 343 341 347 347 349 348 348 347 346 346 346 346 345 345 345 345 343 341 340 341 341 340 340 339 338 338 338 338 339 339 339 339 341 341 340 340 339 338 336 336 337 336 337 339 339 339 340 340 340 340 340
311 309 303 297 294 291 286 287 289 289 292 295 296 298 302 298 296 295 295 294 296 296 297 298 298 298 300 308 308 314 321 328 330 333 335 337 337 338 339 339 339 338 339 340 340 341 341 340 345 346 347 348 348 347 346 346 345 345 345 345 345 344 343 341 340 341 340 340 340 339 339 338 337 338 338 339 338 339 339 339 339 338 337 335 335 335 335 335 337 338 339 338 339 339 338 339 339
307 303 297 296 292 289 286 288 287 291 293 294 296 297 298 296 295 296 295 295 296 295 298 296 298 298 303 308 310 317 322 328 331 332 335 337 337 338 338 339 340 338 339 340 340 341 341 345 340 344 346 347 347 347 347 346 345 345 345 345 345 344 342 341 340 340 340 340 339 339 338 337 337 337 337 337 338 338 339 339 338 337 335 335 334 334 334 334 337 338 337 338 338 337 337 337 337
300 300 300 293 287 285 287 287 287 292 293 294 294 298 298 295 295 294 296 296 297 297 299 298 303 303 306 306 307 314 321 327 331 330 334 335 335 336 338 340 340 339 339 340 340 341 341 341 341 340 343 344 345 346 346 346 346 345 345 345 345 344 342 340 340 340 340 340 339 339 338 337 336 336 338 337 338 338 338 336 335 334 333 333 333 334 334 334 336 337 337 337 335 335 335 336 335
299 298 296 287 288 287 287 288 290 290 292 293 295 296 294 296 294 294 295 297 297 297 297 297 301 305 305 305 307 316 323 326 330 332 333 334 334 336 339 340 340 339 339 339 340 340 340 339 341 341 337 338 342 344 344 344 346 345 345 345 344 343 342 340 340 340 340 339 339 339 338 337 337 338 338 337 337 336 336 334 334 334 335 336 334 333 333 333 335 336 336 335 334 334 334 334 334
301 296 291 288 289 287 286 288 289 290 290 292 294 297 294 296 295 295 295 297 296 296 298 298 301 303 301 304 307 317 321 326 328 331 332 333 333 338 340 340 340 339 339 339 341 341 339 339 340 340 337 334 335 338 340 341 343 344 344 344 344 344 341 339 339 339 339 338 338 338 338 338 338 336 336 336 335 335 334 334 334 336 334 334 333 333 333 333 335 335 335 333 333 334 334 333 333
302 299 294 294 288 288 288 288 288 288 287 290 292 296 296 296 295 295 295 296 295 295 299 298 304 308 306 308 310 315 320 325 327 329 331 331 333 337 338 339 338 338 338 340 340 341 340 340 340 339 337 337 338 335 334 338 340 343 343 342 342 342 341 340 339 339 339 338 337 336 335 336 337 336 336 335 334 334 335 334 333 333 332 332 332 331 331 333 333 334 333 332 333 333 333 333 332
304 300 292 290 286 288 287 288 291 286 288 290 296 297 296 298 293 293 297 294 295 298 301 301 307 300 299 307 304 315 321 325 327 328 329 329 331 336 337 337 337 337 338 339 340 340 340 340 340 338 338 338 337 337 337 336 336 339 340 340 340 341 340 339 339 337 337 336 334 332 332 332 332 334 336 335 334 333 333 334 333 333 332 332 331 330 330 332 332 332 331 331 331 332 332 332 331
306 296 291 293 287 286 289 288 287 287 291 292 296 293 294 297 295 296 296 296 298 300 299 299 300 299 300 304 300 318 322 324 327 328 328 327 328 333 335 335 336 336 337 338 339 340 340 340 339 338 339 337 337 336 335 335 333 333 336 337 338 339 338 336 335 333 332 330 329 328 327 325 324 324 325 326 330 331 330 328 332 332 331 331 330 330 330 331 331 330 328 328 327 328 330 330 329
299 296 295 285 290 288 290 290 288 289 290 292 294 296 295 295 297 298 297 298 299 297 299 301 299 310 306 304 305 320 322 326 325 326 326 325 327 329 332 334 335 335 336 336 338 339 340 339 339 338 339 337 337 336 337 337 334 332 332 332 333 334 333 332 332 327 324 324 324 323 323 322 321 322 322 323 324 324 324 325 331 331 331 330 329 329 329 329 329 328 327 325 325 323 321 322 324
298 294 287 289 285 290 292 291 290 292 294 293 294 293 294 293 296 298 298 297 294 295 297 297 315 316 315 317 314 323 326 325 326 326 324 323 323 327 330 333 333 333 334 335 337 338 339 339 339 339 339 338 337 337 338 337 334 334 335 334 334 331 328 326 325 325 325 323 321 322 322 321 320 320 320 324 322 324 324 323 326 330 330 330 329 328 329 328 328 327 325 324 322 320 315 310 312
294 288 286 288 286 292 293 293 291 293 294 295 294 291 295 294 294 297 294 293 295 295 294 302 310 314 318 319 322 324 324 324 325 325 324 323 323 325 329 331 332 333 333 334 336 337 338 339 339 339 339 339 337 337 338 336 336 336 336 337 335 327 327 325 324 323 322 322 322 321 320 320 320 319 320 321 321 321 322 322 324 328 330 329 329 329 328 327 327 325 324 322 320 316 309 308 309
295 291 287 287 289 294 294 295 296 293 294 294 293 293 293 295 295 297 295 291 293 293 294 295 306 310 313 315 320 323 324 323 324 324 324 323 323 325 328 329 331 332 333 334 335 337 337 337 338 339 338 338 338 338 338 336 337 337 337 336 334 331 327 325 323 322 322 321 321 320 320 320 319 319 321 322 321 320 321 321 323 325 326 324 324 325 326 326 324 323 322 319 313 309 306 307 308
296 292 287 294 292 293 296 294 295 293 295 294 293 293 293 295 294 295 292 293 292 292 294 298 299 312 315 317 319 321 322 322 322 323 323 323 323 325 328 330 331 331 333 334 334 336 335 336 338 338 338 338 338 337 337 336 338 338 337 335 334 331 329 326 323 322 321 320 320 320 320 319 318 318 317 317 317 318 317 319 320 319 320 318 319 316 316 313 309 307 307 306 305 306 306 306 307
292 294 292 292 292 295 296 294 294 294 291 293 291 294 293 296 296 293 293 290 288 293 296 297 300 317 317 317 318 319 320 321 321 321 322 323 323 323 324 324 323 326 326 331 333 335 335 336 337 337 338 338 338 337 338 336 338 337 337 335 334 333 332 329 325 322 321 320 320 320 319 318 317 317 316 315 315 316 315 317 316 315 314 314 313 313 307 306 305 304 304 304 303 304 304 304 305
294 292 292 293 293 295 296 296 293 292 293 291 291 294 295 294 294 292 292 291 292 293 294 298 299 319 320 320 319 318 318 319 320 321 322 322 322 323 325 326 326 327 327 331 332 334 336 336 336 336 336 337 337 337 338 337 338 338 337 336 334 334 335 331 327 324 321 321 322 320 319 318 317 316 315 314 314 314 314 314 313 313 314 313 311 308 306 306 304 303 302 302 303 303 303 303 304
290 292 292 295 294 296 295 296 291 291 293 294 294 295 295 293 295 294 292 293 292 296 296 297 298 318 319 318 318 318 318 319 320 322 323 323 324 324 325 326 326 327 325 328 330 333 333 336 336 335 336 336 336 337 337 336 338 338 338 334 335 333 335 333 330 325 323 323 324 320 318 318 317 316 315 313 313 312 313 312 312 311 311 311 307 306 306 305 303 302 302 302 303 302 302 302 303
293 293 293 295 294 295 292 292 292 293 294 293 294 295 295 292 294 293 294 295 295 294 297 296 303 316 317 317 317 317 317 318 319 321 321 322 322 322 319 321 321 323 325 327 329 331 332 334 335 335 335 335 336 337 337 337 338 338 337 336 335 331 335 335 334 329 325 325 325 320 318 317 317 316 314 313 311 310 310 309 309 310 310 309 305 306 306 304 302 302 301 301 301 301 300 301 301
291 293 292 294 295 294 293 294 292 293 296 294 295 294 292 291 293 295 296 296 295 295 297 298 306 314 315 316 317 316 316 316 317 317 320 321 319 319 320 320 322 322 326 327 327 330 332 332 333 334 335 336 336 336 337 338 338 337 337 336 336 332 336 336 335 333 328 327 327 322 319 317 317 316 314 312 310 309 308 307 307 307 308 305 304 307 305 303 302 301 300 300 300 300 300 300 300
292 293 292 293 295 295 294 295 294 293 295 293 294 292 294 294 295 290 291 295 294 297 296 296 304 311 314 315 316 316 316 316 316 318 316 315 316 319 321 320 320 323 323 325 327 329 330 331 333 333 334 333 335 335 336 337 337 337 337 337 337 335 336 335 334 334 331 329 329 324 321 318 317 316 314 312 309 308 307 307 306 306 306 304 305 308 305 303 302 301 300 299 299 299 298 298 299
294 293 292 292 291 295 293 292 294 294 296 291 293 293 293 294 293 294 295 295 295 297 295 296 297 303 308 311 314 314 315 316 316 313 315 315 317 318 319 321 321 322 322 324 327 328 329 330 332 332 333 333 334 335 334 335 336 337 337 337 336 336 336 336 334 334 332 332 331 327 323 320 317 316 314 312 308 307 307 306 306 305 305 303 308 307 304 303 301 300 298 298 298 298 296 296 297
294 294 292 291 289 293 294 293 294 294 295 294 294 292 291 293 292 297 295 294 294 295 295 296 296 297 299 304 309 310 312 313 313 314 316 318 319 320 319 322 323 322 324 325 326 326 328 329 331 332 331 331 333 334 333 334 335 336 336 336 336 335 336 336 334 334 334 333 332 329 326 322 318 317 315 313 308 308 307 306 306 305 305 305 308 306 304 302 300 298 297 297 296 296 295 295 296
294 292 290 289 286 286 292 292 293 295 295 293 293 284 283 287 295 295 293 295 294 294 293 294 296 296 297 298 302 305 307 307 310 314 316 317 318 319 320 321 322 323 324 324 324 325 328 330 331 332 329 330 331 334 333 333 334 334 334 336 334 335 336 335 334 335 334 334 333 332 329 325 321 321 317 313 310 309 309 307 306 305 305 308 307 306 304 302 299 298 296 296 297 296 295 294 294
291 292 288 286 286 287 290 293 293 293 295 294 292 284 283 286 288 291 292 293 294 294 293 293 294 294 294 295 298 300 303 305 309 313 315 316 317 318 320 321 322 323 321 322 323 325 326 329 330 331 328 328 328 332 330 332 332 332 331 332 333 334 334 335 335 335 334 334 333 333 331 328 324 324 321 316 311 311 311 309 308 307 308 309 307 306 304 301 299 297 296 296 296 296 295 294 294
286 286 283 281 285 283 288 292 292 292 294 292 291 284 286 289 291 291 292 292 293 293 293 292 292 293 294 294 295 297 300 302 304 308 313 314 315 316 318 319 321 322 322 322 323 324 326 328 328 329 328 328 327 329 330 331 331 331 330 326 330 331 332 333 334 334 335 334 333 333 332 331 327 326 325 321 314 313 313 311 309 308 310 311 310 307 305 302 299 298 297 297 295 294 294 293 293
283 283 281 286 283 283 289 295 292 293 294 294 291 284 285 290 292 292 291 294 293 293 292 292 293 294 295 295 296 297 298 297 298 302 306 312 314 316 317 318 319 321 322 322 323 323 325 326 326 327 327 328 327 327 327 328 328 329 329 328 328 328 330 331 332 333 333 334 334 333 333 331 329 328 327 325 321 318 317 314 313 311 312 312 310 308 306 304 300 299 298 297 297 294 293 292 292
287 284 284 281 284 284 285 289 292 291 294 291 292 289 286 289 291 291 292 293 294 293 293 293 294 294 295 295 295 296 297 298 298 299 301 307 312 315 317 316 318 320 321 322 323 324 324 325 326 327 327 327 328 327 326 326 326 327 327 327 325 326 326 328 329 331 332 333 333 333 333 332 330 330 329 327 326 323 321 317 315 314 313 312 310 308 307 305 302 300 298 297 297 295 293 292 292
281 285 285 285 285 284 285 287 291 293 291 291 289 289 290 292 294 294 295 293 294 293 294 295 295 295 295 295 295 295 297 297 299 300 300 303 308 312 315 316 317 318 321 321 322 323 324 324 324 324 325 326 326 326 322 322 321 323 323 323 323 324 324 324 326 328 331 332 332 333 333 332 330 331 330 328 327 326 325 320 317 315 313 312 310 308 307 304 302 300 298 297 296 295 294 293 292
286 286 283 282 286 285 287 287 290 292 291 290 287 289 290 291 292 293 294 292 292 294 295 295 295 294 294 294 295 295 296 297 300 300 300 301 305 310 313 315 316 317 319 321 320 321 322 323 322 323 324 325 325 324 321 320 319 320 320 315 320 321 323 322 323 326 327 330 331 332 332 332 331 331 331 330 328 327 326 324 318 316 313 312 310 308 306 304 302 300 298 296 295 294 294 293 293
287 287 285 285 285 288 289 289 291 291 290 288 289 288 288 290 292 294 294 292 290 290 292 294 295 296 296 295 295 296 296 298 299 299 299 300 301 306 310 312 314 315 317 318 319 320 322 323 321 321 322 323 323 322 321 321 319 316 314 320 322 322 322 321 321 322 324 327 329 331 331 332 332 331 330 330 329 325 327 326 320 316 314 312 311 309 308 305 303 301 299 297 295 293 292 293 292
289 285 285 286 285 287 289 291 292 289 290 285 284 285 288 289 290 291 292 289 290 292 292 292 294 295 296 296 296 296 297 296 297 297 297 297 299 300 305 309 309 312 314 317 318 320 321 322 321 322 321 321 323 323 323 322 322 322 321 320 321 320 318 318 320 320 322 322 324 328 329 331 332 331 328 330 329 329 327 326 322 317 314 312 311 310 308 305 303 302 299 296 296 294 292 293 292
285 287 283 284 287 286 289 289 289 290 289 287 283 287 290 291 291 292 292 293 294 292 293 295 294 294 295 295 295 296 296 297 296 296 296 297 299 299 301 306 310 314 315 316 318 319 319 320 321 321 321 321 322 322 322 322 323 321 320 315 318 309 310 313 313 314 315 319 320 323 327 329 330 331 330 328 329 329 328 326 324 320 315 312 311 310 308 306 304 302 299 297 294 294 293 293 292
284 284 285 285 283 287 286 287 287 290 289 287 286 287 291 292 290 292 294 293 293 294 293 294 294 295 295 296 297 297 296 297 297 297 297 296 297 297 297 301 307 310 310 311 314 316 318 319 320 320 320 320 321 321 319 320 319 314 313 308 311 314 311 307 309 309 313 315 317 319 323 327 329 330 330 329 328 329 328 327 326 322 317 314 312 310 308 306 304 303 300 299 297 293 292 291 293
285 282 282 282 288 288 287 288 288 285 289 286 286 286 288 282 283 284 286 287 290 291 291 292 293 294 296 296 295 295 296 297 297 297 295 295 297 298 299 301 302 306 309 311 314 316 318 318 319 319 319 319 319 317 316 313 312 309 306 306 306 307 307 306 307 308 312 316 318 317 321 323 327 328 329 330 327 329 328 327 326 324 320 316 314 312 309 308 305 303 301 299 297 296 292 292 292
284 285 286 286 285 288 289 285 286 281 281 283 287 279 277 280 283 284 289 286 286 285 287 289 290 290 291 293 295 295 295 295 295 297 296 295 298 298 296 297 299 303 307 309 312 315 316 316 316 315 315 315 316 314 315 313 314 314 309 310 309 307 310 308 311 313 312 314 317 319 315 319 323 325 327 328 328 327 328 327 325 323 321 318 315 314 311 309 306 303 301 300 298 298 296 292 291
285 287 287 285 286 287 286 288 284 279 279 286 284 281 278 281 284 286 286 283 287 288 287 289 289 291 291 293 293 293 294 295 294 295 295 296 297 297 297 297 299 300 304 305 304 308 310 311 313 313 314 314 314 312 312 312 312 312 313 315 314 313 313 312 310 307 310 309 308 314 318 317 319 322 323 325 326 325 326 326 326 324 321 319 315 315 312 309 308 305 302 301 300 299 297 293 292
283 285 287 287 288 288 287 284 286 280 279 283 281 278 278 280 283 283 283 285 287 289 291 291 292 289 290 291 292 293 294 293 295 296 297 297 298 299 300 299 299 300 299 300 302 303 306 308 310 311 311 311 312 312 311 313 314 312 311 312 312 313 312 313 309 306 303 305 309 310 311 315 318 320 321 322 325 324 323 325 324 323 323 321 316 315 314 312 309 307 303 302 301 300 298 297 294
284 287 287 286 287 285 284 282 281 283 282 281 279 283 281 278 282 285 284 287 286 286 289 289 289 289 290 289 290 291 292 292 294 296 297 298 298 298 298 298 298 298 298 300 302 303 304 304 306 306 308 309 310 310 310 310 313 312 312 312 311 311 311 310 302 303 306 304 307 308 309 312 314 317 319 319 321 323 321 321 322 322 321 321 316 318 317 314 310 307 304 302 301 300 299 300 298
291 289 288 287 286 285 282 280 284 279 279 276 279 282 277 277 281 282 281 286 284 285 287 288 288 288 293 294 292 291 293 294 294 294 295 296 296 296 297 298 297 298 297 298 299 299 300 300 303 304 306 307 308 309 309 309 310 310 310 310 311 311 306 304 302 304 304 303 306 307 307 308 311 314 316 317 317 319 319 319 321 322 322 321 315 316 315 313 310 308 305 303 302 301 301 300 300
290 288 289 286 283 281 279 279 277 277 274 275 279 281 281 278 280 281 284 286 284 285 284 286 288 291 294 294 293 294 295 294 294 294 295 293 293 294 295 297 297 297 296 297 298 299 299 301 302 304 305 306 306 308 308 309 309 309 311 310 310 310 306 305 303 303 303 302 305 306 306 307 308 312 314 314 316 317 318 316 318 320 320 318 316 317 316 315 312 309 306 304 303 302 301 300 300
290 285 280 281 280 279 277 273 276 274 269 274 277 280 280 275 277 281 284 284 285 288 290 289 289 290 293 293 294 294 293 293 294 294 296 294 295 295 295 296 296 295 295 296 297 298 298 299 300 302 303 304 305 306 306 308 309 309 310 310 309 309 307 306 305 306 304 304 305 306 305 304 306 308 310 312 313 313 313 314 313 316 317 319 317 316 316 316 314 311 308 305 303 303 302 301 301
287 284 283 277 274 271 274 270 275 272 272 280 279 280 280 281 284 286 287 288 288 285 287 291 292 291 292 293 293 293 291 291 293 293 292 293 293 293 295 295 294 294 295 295 296 296 297 297 299 301 303 302 304 305 306 307 307 308 309 309 308 308 307 306 306 306 305 305 305 305 304 305 304 305 308 310 311 310 310 311 313 313 314 316 317 317 316 315 313 310 308 305 304 303 302 302 301
285 286 279 275 271 271 266 263 265 268 275 277 280 281 281 279 282 289 292 294 291 288 286 286 289 292 294 296 294 294 292 292 292 292 291 291 292 294 293 293 292 293 293 294 295 295 296 298 298 300 302 301 302 303 305 306 306 308 308 308 308 307 306 306 306 307 306 305 305 305 305 305 305 306 307 308 310 310 310 312 312 312 313 314 314 315 316 315 314 311 309 307 305 305 304 303 303
287 283 285 280 271 268 267 266 271 272 272 276 278 277 276 275 286 288 287 290 289 288 288 287 287 288 290 290 293 293 293 292 291 292 294 295 295 294 294 294 292 292 293 294 293 295 295 298 299 300 301 301 301 303 304 305 306 306 306 307 307 306 307 306 306 306 306 304 304 304 305 305 305 306 306 306 305 306 308 309 309 311 312 312 312 312 312 313 313 312 309 308 306 305 304 303 303
284 282 281 278 278 276 275 269 270 269 272 273 275 277 277 282 285 286 288 288 290 290 288 286 288 288 289 292 291 290 292 292 292 293 295 295 295 293 294 294 294 293 293 293 294 296 296 299 299 300 301 301 301 301 303 305 305 305 305 305 306 305 304 304 304 303 304 304 304 304 305 305 305 305 304 303 303 305 306 306 306 307 309 310 310 310 311 310 310 309 307 307 307 306 305 302 302
283 285 280 282 282 280 273 273 277 274 271 275 272 279 281 282 284 289 289 287 288 287 286 285 285 289 289 290 287 288 290 290 291 292 294 295 293 294 295 295 295 294 294 296 297 297 298 299 299 300 300 300 300 301 302 302 304 303 304 304 304 304 304 304 305 304 303 303 303 304 304 304 303 303 303 302 302 303 304 305 305 305 306 306 307 308 309 309 309 308 307 305 304 303 302 302 302
285 281 283 284 285 282 278 274 267 266 271 273 274 277 276 278 279 281 284 286 289 285 285 286 287 286 289 292 290 291 291 291 290 292 293 294 294 295 295 296 296 296 296 295 296 296 297 299 299 299 299 300 300 301 301 301 302 302 303 303 304 304 305 304 304 304 302 302 302 302 301 301 302 302 302 301 301 301 301 301 304 304 303 303 304 305 306 307 306 305 306 306 306 304 302 301 301
284 281 285 286 278 279 278 273 271 268 266 268 273 274 276 280 282 281 283 284 285 285 286 288 290 290 291 291 291 289 288 291 292 293 293 293 294 295 296 296 296 296 296 296 295 295 296 296 297 298 300 300 300 301 300 300 301 303 304 303 302 303 303 303 303 301 300 301 302 302 301 302 300 299 300 299 299 297 297 297 299 300 299 300 300 301 302 304 305 305 303 302 302 301 301 300 299
290 289 287 284 280 276 276 277 272 274 269 267 272 275 280 281 280 283 287 287 289 286 286 287 290 291 291 291 290 289 290 291 291 291 293 294 294 294 295 295 295 295 296 296 295 293 295 296 296 297 298 297 297 298 298 299 299 300 302 300 300 302 302 302 301 300 300 301 302 301 301 298 300 298 299 298 298 296 295 296 296 297 298 297 296 297 297 299 299 301 300 299 299 299 298 298 297
286 286 284 286 282 283 280 279 275 275 264 264 268 271 275 277 283 285 286 286 286 286 290 288 291 291 290 289 290 291 290 291 292 291 292 293 295 295 293 292 293 291 290 291 292 295 296 295 296 296 297 298 298 298 297 299 297 299 298 299 300 299 299 299 298 299 299 300 300 299 300 299 294 297 296 295 295 295 295 295 296 296 297 296 296 296 295 295 295 296 296 297 297 296 297 297 296
289 288 286 287 282 278 275 276 279 272 274 271 266 275 279 281 284 286 284 284 286 287 289 288 290 291 291 291 291 290 294 294 294 293 293 294 294 293 292 289 287 288 291 290 293 291 292 294 296 296 296 297 298 297 297 298 297 298 298 299 298 296 297 296 297 297 297 298 297 297 296 292 295 295 293 295 295 294 293 294 294 295 295 295 296 297 295 295 295 295 295 296 296 295 295 295 293
Wind_Speed
6 5 5 3 1 2 1 4 2 2 2 0 0 1 1 0 1 3 0 1 2 2 1 2 3 3 2 4 10 6 0 3 2 4 2 1 1 8 7 7 8 7 6 4 5 4 3 7 11 12 13 12 12 11 13 14 15 15 15 16 16 15 15 14 14 14 14 14 14 14 14 14 14 14 14 17 17 17 16 18 18 18 18 18 17 19 18 17 17 18 19 19 17 17 18 17 18
3 5 4 1 2 1 1 2 3 1 6 4 0 1 1 2 3 4 3 3 2 2 1 4 8 11 12 11 9 4 4 2 2 1 0 2 4 5 7 8 10 10 6 5 5 4 4 5 9 12 13 13 13 13 14 14 14 15 15 15 15 15 15 14 14 14 14 14 14 13 14 14 13 14 17 17 17 17 15 17 17 17 17 17 17 18 17 17 17 19 19 18 17 16 16 17 18
3 5 4 3 3 3 1 3 0 1 5 1 2 2 1 3 4 2 3 4 4 4 5 8 8 5 3 2 5 2 1 3 3 2 3 4 9 4 7 8 8 8 7 4 5 5 4 5 10 11 13 13 13 14 14 14 14 14 14 15 15 15 14 14 13 14 14 14 14 14 14 14 14 14 16 16 17 17 17 17 17 17 17 17 18 18 17 17 19 19 19 17 17 16 15 16 18
1 1 0 2 1 4 2 3 4 7 5 5 1 1 1 6 4 4 2 1 1 2 2 1 3 1 5 7 3 4 3 1 1 4 5 7 3 7 8 8 8 6 5 4 4 5 4 5 9 11 13 13 13 14 14 13 14 15 15 15 15 14 14 13 14 14 14 13 13 13 14 14 12 15 16 16 16 16 16 15 15 16 17 17 18 16 16 18 19 19 18 17 16 16 15 15 18
2 2 1 3 3 1 1 0 5 4 4 5 5 3 2 3 6 3 1 1 2 2 1 2 4 3 1 6 1 1 4 1 2 1 3 2 6 8 9 8 8 7 6 5 5 5 5 8 8 10 13 13 14 14 13 13 14 15 15 15 15 15 14 14 13 14 14 13 13 13 13 14 13 15 15 16 16 14 15 15 15 15 17 18 18 16 17 18 19 18 17 16 15 16 15 16 17
1 1 2 1 0 2 5 2 4 1 3 4 3 3 4 4 6 4 1 1 0 1 3 3 4 4 2 2 1 3 3 6 3 1 3 6 10 10 11 8 8 7 6 5 4 4 5 8 8 10 11 12 13 14 13 13 14 14 15 14 15 15 14 13 13 13 14 14 14 13 13 12 13 14 15 14 13 14 16 17 17 16 16 18 17 16 17 17 18 18 16 16 16 16 16 17 17
1 4 3 4 1 4 4 4 4 3 1 6 5 4 7 5 4 5 3 3 2 4 1 2 5 5 5 1 1 0 3 3 2 3 4 8 10 11 11 9 9 8 7 6 4 4 6 9 9 9 10 11 13 12 13 14 14 13 14 15 15 15 14 14 13 13 13 13 14 13 12 12 13 15 14 14 13 14 15 15 15 16 18 18 17 15 16 17 17 17 16 16 16 16 17 17 18
0 0 1 2 1 3 2 2 0 2 1 4 3 9 6 6 5 4 4 3 2 2 1 3 2 5 0 3 3 2 4 1 3 5 8 9 9 10 9 9 9 8 8 6 5 4 7 9 10 10 10 11 12 11 13 13 13 13 13 14 14 14 14 13 13 13 13 13 13 13 12 12 12 13 14 14 14 15 15 15 15 17 17 17 16 14 15 16 17 16 16 16 16 16 17 18 17
2 1 1 4 1 3 3 2 1 1 1 2 1 2 7 8 8 5 2 2 1 1 2 3 4 6 2 3 1 3 3 2 3 9 10 9 10 10 8 9 9 8 8 7 6 5 5 8 10 10 10 11 11 12 12 13 13 12 13 14 13 14 14 13 13 13 13 13 12 13 12 11 11 13 14 13 13 14 14 14 14 15 16 16 15 15 15 15 17 15 15 16 16 17 16 17 17
1 1 1 1 2 3 2 1 4 1 2 3 6 6 5 4 3 1 6 4 4 3 1 1 1 4 3 5 1 1 1 0 6 9 9 10 9 8 8 9 9 10 8 7 6 6 5 10 10 11 11 10 10 10 11 12 13 12 13 13 14 14 13 13 13 13 12 12 12 12 11 11 11 12 12 13 13 13 13 14 15 15 15 16 14 14 14 15 16 14 15 16 17 17 16 16 16
1 4 2 2 4 3 3 2 1 1 1 0 2 3 6 5 5 4 2 4 0 3 1 3 5 5 3 1 2 3 3 1 10 11 10 10 8 9 8 8 9 10 9 8 7 5 6 6 10 11 11 11 11 11 10 11 12 13 14 13 13 14 13 12 13 13 13 13 12 12 11 11 11 11 11 12 13 14 13 14 13 14 14 15 14 13 13 15 15 14 15 16 16 16 16 16 16
1 1 2 2 2 5 4 6 2 1 0 0 2 2 2 5 4 4 3 6 1 3 4 5 4 5 3 1 1 1 1 2 8 10 10 7 7 8 8 6 8 8 11 9 7 6 5 5 6 9 11 11 11 11 11 10 11 12 13 13 14 14 14 13 12 13 13 12 12 12 11 10 10 13 13 12 11 11 12 12 13 14 15 15 14 14 14 14 15 13 15 15 15 15 16 16 16
2 1 4 4 1 2 3 5 3 0 1 2 4 2 3 6 5 7 5 3 2 4 0 4 8 3 2 1 2 1 2 6 4 6 7 6 7 8 8 7 8 9 8 8 8 7 6 5 5 5 7 11 11 10 10 10 11 13 13 13 12 13 14 14 13 13 13 13 12 12 10 8 9 10 10 10 11 11 11 11 13 15 14 14 13 14 14 14 13 13 14 15 15 15 16 16 16
1 3 4 0 0 5 5 3 1 4 2 3 2 1 2 2 3 7 7 5 4 5 1 4 4 5 2 2 1 4 6 6 4 4 5 5 6 8 8 7 7 8 8 9 9 8 7 6 6 5 6 6 6 8 9 10 11 13 12 12 12 12 13 13 13 13 12 12 11 10 9 9 9 9 9 10 10 9 9 9 12 12 13 14 13 13 14 13 11 13 14 14 15 16 16 15 15
1 1 3 3 1 2 2 4 10 4 4 3 2 2 1 2 4 3 7 6 4 2 0 1 4 3 5 7 4 10 11 9 6 4 4 5 6 7 8 8 8 8 8 8 7 8 7 6 6 5 6 5 6 5 5 7 11 12 13 12 12 13 13 13 12 12 12 12 12 11 10 10 10 10 10 9 8 9 9 8 11 11 13 13 13 13 13 12 11 13 14 15 15 16 15 15 15
2 4 3 0 1 2 2 2 2 5 2 4 2 4 5 1 1 5 3 4 2 1 0 1 2 1 4 7 5 15 11 8 7 4 5 6 4 6 7 7 7 7 8 8 8 7 7 7 6 5 5 5 5 5 5 4 9 11 11 12 12 13 13 13 13 13 12 12 12 12 12 10 10 9 11 9 10 10 10 8 11 12 13 13 13 13 13 12 12 14 15 15 15 15 15 15 14
3 3 0 3 0 0 1 2 6 3 1 3 2 3 4 1 0 0 0 1 7 0 4 1 2 3 5 3 2 13 10 8 6 5 5 5 6 6 5 6 6 5 5 7 8 7 8 8 7 6 6 6 5 5 5 5 7 10 9 11 12 12 12 12 12 12 11 11 10 11 10 7 6 6 7 6 10 7 10 11 12 13 14 13 14 14 14 12 13 14 14 14 14 14 12 13 13
1 0 4 1 2 1 2 3 8 1 8 5 4 4 5 2 1 0 1 6 3 2 5 3 4 5 3 3 4 12 12 11 9 10 7 7 6 7 7 7 7 8 7 7 7 8 8 8 9 8 7 7 6 5 5 5 5 7 6 7 7 9 10 10 9 7 7 6 9 8 6 6 5 5 5 6 5 6 8 11 11 13 14 13 14 15 15 14 14 14 14 14 14 12 11 7 7
1 2 3 3 4 1 3 1 4 4 4 7 5 3 6 5 5 2 3 0 2 2 2 3 3 5 5 4 8 13 11 10 11 11 11 11 9 11 10 8 8 7 7 7 7 8 8 7 8 8 8 8 8 6 6 6 7 5 6 7 7 7 7 7 6 6 5 6 5 5 5 5 5 4 4 5 5 7 7 9 10 11 12 11 12 13 14 14 15 14 14 13 12 12 8 6 6
1 3 1 2 6 1 2 1 1 3 3 6 5 3 3 1 3 0 2 5 1 6 3 1 0 1 3 4 7 11 11 11 11 12 12 11 9 10 10 10 9 10 9 9 8 7 8 8 9 9 9 9 8 6 6 6 5 5 5 6 7 6 6 6 6 6 5 5 5 5 5 4 4 4 5 7 6 4 6 8 8 9 9 9 11 8 11 11 12 12 11 10 8 5 5 6 6
1 3 2 3 4 2 1 1 0 2 5 6 5 2 1 1 3 2 3 6 3 5 6 9 10 9 9 7 9 9 11 11 10 10 10 10 8 6 10 12 12 11 9 7 7 9 9 9 9 9 8 8 8 7 7 7 6 6 5 6 6 6 6 5 5 5 5 5 5 5 5 4 4 5 5 5 4 4 4 4 4 5 4 5 6 4 4 4 5 5 5 6 5 5 6 5 5
3 0 2 2 1 1 1 1 2 1 4 7 3 7 4 1 0 2 8 5 6 8 8 9 9 14 13 12 10 8 11 12 12 11 13 13 14 12 7 4 2 4 5 8 10 9 10 9 10 8 9 9 9 8 8 8 8 7 7 8 7 6 7 6 6 5 5 5 5 5 6 6 5 5 5 5 4 4 4 4 4 4 4 3 3 4 4 4 4 5 5 6 5 5 6 5 5
1 2 1 1 2 2 1 0 4 2 3 5 6 3 3 4 1 2 6 7 3 6 5 11 8 16 16 12 12 11 11 13 13 15 14 13 11 11 10 8 9 9 8 10 9 8 9 9 9 9 9 9 10 8 7 7 7 7 7 7 7 7 7 8 7 6 6 6 6 6 7 6 6 6 6 6 6 5 5 5 5 5 5 5 4 5 4 4 5 5 5 5 5 5 6 5 6
6 2 1 1 0 3 1 1 3 2 9 5 2 1 4 3 2 1 3 6 5 3 1 1 7 8 10 12 13 16 17 16 17 17 16 18 17 17 15 13 9 6 6 8 9 9 9 11 10 10 10 10 9 9 9 8 7 8 8 8 8 8 8 8 8 7 7 7 7 7 7 7 7 6 6 6 6 5 6 5 5 5 5 5 4 6 6 5 5 6 5 5 6 5 6 5 5
2 1 1 1 1 0 1 1 2 3 2 0 4 4 2 5 1 1 5 8 6 5 3 4 10 11 9 12 13 11 11 11 13 13 9 8 9 8 5 5 5 6 9 9 9 9 11 11 10 11 10 11 9 9 9 8 8 8 8 9 9 8 7 8 8 8 7 7 7 8 7 7 6 6 7 6 6 6 6 5 5 5 5 5 4 5 5 6 5 6 6 6 6 6 5 5 5
2 2 4 1 0 0 0 2 1 1 0 1 2 1 2 3 2 3 9 7 6 1 3 6 9 11 12 13 14 13 12 14 12 10 15 11 6 7 9 8 8 10 12 10 9 10 9 10 11 12 12 11 10 10 9 9 9 9 9 9 8 9 8 7 8 8 7 7 7 8 8 8 8 8 7 6 7 7 6 5 5 6 6 5 5 5 5 5 6 6 6 6 6 6 5 4 5
3 4 2 4 0 1 1 1 0 0 0 1 2 1 0 2 2 7 2 6 3 4 5 3 11 12 13 11 12 12 13 14 15 14 6 5 7 10 11 8 10 12 9 11 11 10 9 10 11 11 11 10 9 10 9 9 9 9 9 9 8 9 9 7 7 7 8 8 8 9 8 8 7 7 7 7 6 6 6 7 6 6 6 6 5 5 5 6 5 6 6 7 6 6 5 4 5
5 7 4 5 4 0 1 1 1 1 0 0 3 0 2 2 2 8 5 0 6 8 4 5 5 9 10 10 11 10 11 12 9 6 13 12 12 13 13 13 14 11 12 13 12 9 9 12 12 11 11 10 11 11 10 10 10 10 9 8 9 9 9 8 8 8 8 8 8 9 9 8 7 7 8 7 7 7 7 7 6 7 7 6 5 5 5 5 6 5 5 5 5 6 6 4 3
4 4 1 3 5 0 0 2 1 0 1 2 0 1 2 1 5 8 1 1 4 6 7 6 6 6 7 8 8 7 12 9 7 9 13 15 13 12 16 15 14 13 11 13 11 10 13 12 12 12 10 10 12 12 11 10 9 9 9 9 8 9 9 8 8 9 8 8 8 10 10 10 8 8 8 9 8 7 7 7 6 7 7 6 5 6 6 5 6 6 5 5 5 6 6 5 4
3 5 4 3 3 2 2 1 1 0 1 1 1 2 7 9 13 4 4 3 1 3 5 6 6 5 5 6 8 9 7 5 9 13 13 12 11 12 15 14 13 13 11 9 9 13 11 9 9 9 10 11 12 11 10 9 10 9 8 9 8 9 9 9 9 8 9 8 8 10 10 11 10 9 9 9 8 8 7 7 8 7 7 5 5 6 7 6 6 7 6 6 5 7 6 5 6
3 1 4 1 1 2 3 0 1 3 0 1 1 2 7 7 9 9 6 4 5 6 6 5 6 5 5 5 6 9 10 10 14 15 14 12 11 10 13 11 11 12 8 8 13 15 12 12 10 9 11 11 11 11 11 11 9 9 9 8 8 9 9 9 9 9 8 8 9 9 11 10 11 11 11 10 10 9 9 8 8 8 8 7 7 6 7 5 7 8 7 7 5 5 5 5 5
2 4 2 2 2 3 5 1 5 4 0 4 3 1 7 8 9 5 5 2 5 6 6 6 6 6 6 5 7 8 11 9 11 10 12 13 11 11 12 13 11 11 13 13 12 10 13 12 12 11 11 12 12 12 11 11 10 9 9 8 8 9 8 9 8 9 9 9 9 9 11 11 11 11 10 10 10 10 10 9 9 8 10 8 7 8 7 7 6 7 6 8 8 5 6 5 4
4 3 1 1 1 3 2 0 0 2 1 2 2 5 4 4 3 2 4 3 1 5 5 5 6 8 7 7 8 9 9 8 8 12 12 12 12 12 12 12 12 15 13 11 12 11 12 13 13 13 14 15 13 11 10 9 9 9 9 9 9 9 9 9 8 7 8 9 9 9 10 10 11 11 10 11 9 10 9 9 9 10 9 9 9 9 9 8 8 7 6 5 7 7 7 7 5
2 1 2 3 3 1 2 2 1 1 1 2 1 1 6 4 7 8 7 2 1 3 6 7 7 7 8 7 8 9 9 10 12 13 15 13 12 14 13 12 13 12 11 12 12 13 15 13 12 14 12 13 12 12 10 9 9 9 8 8 8 9 8 8 8 8 9 8 8 10 10 10 10 11 11 11 10 10 10 10 9 10 9 9 9 9 9 9 9 9 8 5 6 7 7 8 7
4 1 0 2 0 2 2 2 1 1 2 2 0 3 9 12 9 9 10 2 1 6 8 8 8 8 9 8 8 9 10 11 15 12 13 13 13 12 11 10 9 10 10 12 10 11 9 10 10 11 11 11 11 10 8 7 7 7 6 7 8 8 7 7 8 9 9 8 9 9 10 10 10 11 11 11 10 9 9 9 9 11 10 10 9 9 8 8 8 8 10 7 5 5 7 7 8
7 8 5 2 2 2 2 2 2 1 1 3 3 7 7 9 9 10 10 4 5 9 8 8 9 8 8 8 9 9 10 14 13 9 9 9 10 11 11 9 9 9 10 9 9 9 10 9 9 10 11 11 9 8 7 7 7 8 8 6 7 9 8 8 8 9 8 9 9 10 10 10 10 11 12 12 11 10 9 9 9 9 10 10 11 10 9 9 11 11 9 10 9 5 4 6 8
4 4 4 2 2 1 2 1 2 1 0 5 6 5 6 10 11 12 10 5 3 7 10 11 10 10 10 9 10 11 11 15 6 6 6 7 9 9 7 6 7 7 7 8 9 10 11 13 11 13 11 9 9 9 9 10 10 7 6 11 13 10 10 8 8 8 8 8 9 10 10 10 10 10 10 11 12 10 10 9 10 10 10 10 11 12 12 12 12 12 11 10 12 9 6 7 8
6 6 5 1 0 1 1 0 1 1 1 2 1 4 9 11 11 12 9 3 10 11 11 11 13 11 11 11 13 12 13 6 5 5 5 5 7 7 6 7 6 8 9 9 11 13 12 10 12 12 8 9 10 11 11 10 11 11 11 11 10 8 8 9 10 8 8 7 8 9 9 9 11 11 9 9 10 11 10 9 10 11 11 11 11 11 13 13 14 12 10 7 5 11 9 10 9
2 5 3 4 1 2 3 2 2 1 2 7 3 5 12 10 10 12 10 13 8 6 8 11 10 10 10 10 11 12 8 12 7 7 5 6 7 7 6 7 8 12 12 13 12 10 9 10 10 9 9 10 10 10 10 11 10 7 8 5 7 4 3 4 4 4 5 7 8 9 9 10 10 11 11 10 10 11 12 10 10 9 11 10 9 9 9 11 10 11 14 13 10 5 6 8 12
5 4 1 3 2 1 2 3 2 2 1 2 2 7 13 8 6 11 13 6 6 8 8 10 9 11 12 14 11 10 11 12 11 10 9 6 6 5 5 6 10 8 7 6 7 10 9 10 9 10 10 10 9 10 10 8 6 4 2 2 4 5 5 4 3 2 5 6 9 8 9 11 11 11 12 12 10 10 10 12 10 9 10 11 11 11 12 12 12 11 11 11 13 12 7 9 10
2 3 3 2 1 1 3 1 0 1 1 2 4 6 11 4 4 3 3 2 4 4 3 6 9 9 11 8 7 9 12 10 11 9 7 6 6 8 11 11 6 8 9 10 10 11 10 13 12 12 10 10 9 8 8 5 5 4 3 3 3 2 2 3 4 5 7 8 7 9 11 9 10 11 10 12 13 12 10 9 10 12 12 12 12 12 12 14 14 14 15 13 14 14 11 9 11
2 2 4 2 3 4 0 3 2 7 2 3 2 4 5 4 5 8 10 5 5 3 5 6 7 6 6 9 15 10 7 7 9 10 8 5 8 6 5 5 7 9 10 10 10 10 8 9 8 8 6 6 8 8 8 7 8 8 7 7 6 5 7 6 11 14 9 9 12 6 4 8 9 9 10 10 10 11 13 12 9 8 11 12 13 14 13 11 13 13 15 14 15 12 14 12 12
1 3 3 4 6 5 3 0 3 1 1 1 3 2 8 5 5 6 6 5 10 8 2 7 8 9 6 8 6 5 7 7 6 7 6 5 7 6 7 7 9 9 11 6 5 6 6 6 7 8 8 7 7 7 8 8 7 8 11 12 10 11 12 10 7 4 6 6 3 6 7 6 8 9 9 9 9 9 9 9 12 12 10 9 11 10 11 13 12 13 11 12 13 12 10 12 14
1 1 4 5 6 5 2 2 2 3 1 4 3 3 2 10 6 3 4 4 8 9 11 11 10 6 8 7 6 6 5 6 6 7 7 7 6 8 10 10 8 11 4 4 5 5 7 8 8 8 7 8 7 7 9 9 10 9 9 9 10 11 12 12 7 6 3 4 7 7 6 7 8 8 9 9 10 9 8 10 9 8 12 14 11 11 13 12 10 10 13 15 14 13 15 15 14
2 2 6 3 5 3 5 3 3 0 2 7 3 0 0 5 8 3 2 5 7 8 11 9 9 7 7 7 7 6 5 4 5 6 7 7 6 7 6 5 6 2 4 7 7 6 5 5 6 5 7 7 7 8 9 9 9 10 10 9 10 10 10 8 4 5 5 5 7 6 7 7 7 8 8 9 9 10 10 9 8 10 9 9 11 14 14 14 17 16 14 13 13 12 11 12 11
1 4 6 6 6 6 3 3 2 1 1 6 2 2 2 9 7 5 2 1 6 7 7 8 6 6 7 8 6 4 4 3 2 4 5 6 5 4 4 2 2 5 3 2 2 3 4 4 5 6 7 7 7 8 9 9 9 9 10 11 13 11 7 5 4 6 6 5 8 8 7 7 7 8 9 9 9 9 9 9 11 11 12 12 10 11 9 9 11 13 15 15 15 15 13 13 14
6 5 7 6 8 4 3 7 2 2 1 7 7 2 2 6 6 5 2 3 3 1 3 5 6 6 6 5 4 3 3 4 4 3 2 3 3 3 2 4 2 1 1 2 4 4 5 5 6 7 7 6 7 9 9 10 9 9 11 12 13 13 9 8 7 7 6 5 9 8 8 8 7 9 8 9 10 10 10 9 9 9 10 11 11 12 15 15 14 14 13 14 14 16 13 13 12
5 2 3 5 2 7 3 4 5 1 5 5 1 2 2 6 6 5 7 4 4 2 1 5 6 5 5 4 4 3 3 4 4 3 3 4 3 3 1 1 2 2 2 2 2 2 3 4 4 6 5 6 6 7 8 10 10 11 11 11 13 12 10 10 12 12 10 11 10 9 7 5 7 6 7 8 9 7 8 8 8 9 10 10 11 10 11 12 12 12 13 15 14 14 12 11 12
6 6 7 4 2 5 2 3 2 5 5 0 2 2 1 12 9 7 10 9 4 3 4 4 3 4 3 3 3 3 4 4 4 4 4 4 3 3 1 2 2 3 2 3 3 2 3 3 4 6 8 5 7 7 9 10 10 11 12 11 11 9 10 11 12 12 9 10 8 8 6 8 6 7 9 9 9 8 8 9 8 8 8 9 9 10 11 10 9 8 9 11 13 15 15 14 13
6 7 6 5 1 1 4 4 2 5 5 5 1 1 5 4 7 13 17 11 1 5 4 4 2 2 3 3 5 5 5 4 4 4 4 4 4 4 4 4 3 2 2 2 2 3 4 4 5 6 8 5 6 7 9 10 12 11 10 10 10 9 10 10 11 11 9 8 7 9 9 10 10 11 10 11 9 9 8 9 9 10 9 8 7 8 10 11 12 12 12 12 14 14 13 17 17
9 2 9 9 8 5 3 3 5 5 4 3 4 1 7 2 0 1 3 8 6 3 3 3 4 5 4 3 4 4 5 5 4 4 5 5 5 5 5 4 4 4 3 4 4 4 4 5 5 7 7 6 6 8 7 10 10 9 9 9 9 8 10 10 10 9 9 9 8 9 10 8 10 9 9 8 7 8 9 9 9 10 11 10 7 7 7 9 10 10 11 12 10 10 11 12 13
0 3 5 5 6 6 1 5 2 1 1 2 1 6 4 4 3 8 5 7 6 1 4 2 3 5 4 2 3 4 5 4 5 5 6 6 5 4 4 5 5 5 5 4 5 4 5 7 6 7 9 7 7 7 8 9 9 7 7 9 10 9 8 8 8 7 8 8 9 10 10 9 9 7 7 6 7 8 9 9 9 10 10 11 10 8 8 8 8 8 7 9 14 11 12 13 13
4 4 5 6 2 7 5 1 1 1 3 9 2 8 7 7 6 8 8 2 5 2 3 6 3 1 2 1 3 4 5 5 5 4 4 6 5 5 6 6 5 5 5 7 7 6 7 7 7 8 8 6 6 7 9 7 7 7 9 9 8 9 9 11 11 10 10 8 8 9 9 9 8 8 7 7 8 8 8 9 9 10 10 9 10 10 9 9 9 9 9 9 9 7 8 11 12
7 3 8 1 2 4 4 4 2 1 4 7 2 8 3 2 8 4 3 1 8 1 2 1 1 0 1 1 3 4 5 4 4 6 6 6 6 6 6 6 6 7 7 6 7 6 6 6 7 8 7 9 8 8 8 7 7 8 8 8 9 10 10 11 10 10 7 8 9 8 7 8 9 8 8 7 7 8 8 8 9 9 9 9 9 8 8 8 7 7 9 11 12 11 11 10 10
3 3 3 6 3 2 2 3 3 1 3 6 4 3 5 9 8 2 1 1 2 1 2 4 2 2 1 3 5 5 5 4 3 4 4 5 5 6 6 7 6 6 6 7 6 5 6 6 6 7 10 9 9 8 7 6 7 7 7 8 8 9 9 9 7 7 6 9 11 9 10 10 6 7 7 7 7 7 7 8 8 8 8 9 7 8 7 7 8 9 8 8 7 7 9 10 10
1 3 3 1 3 2 5 6 4 5 4 0 8 2 10 5 7 8 8 7 9 3 5 5 1 0 1 2 3 4 3 2 2 4 4 5 5 5 6 6 6 6 6 6 6 5 7 7 7 9 7 6 6 8 7 8 7 7 8 6 8 8 8 8 7 7 8 10 10 9 9 8 9 6 8 8 8 8 8 8 8 8 8 8 8 7 7 7 6 8 7 8 8 9 10 11 10
3 2 3 1 1 2 4 1 4 4 4 5 3 7 7 6 7 9 9 7 3 2 8 4 0 0 1 1 1 1 1 2 3 3 4 5 6 6 6 5 6 5 5 4 4 6 7 5 7 7 9 9 10 9 7 9 6 8 8 10 9 7 8 7 7 8 9 11 9 8 9 8 5 8 7 8 8 9 9 9 9 9 9 8 8 8 7 6 6 7 7 7 7 8 10 9 8
11 13 11 11 8 4 4 7 2 1 2 5 2 12 6 6 1 6 6 5 6 7 6 3 1 0 0 1 1 2 2 2 2 3 3 5 6 9 6 4 3 4 6 6 5 4 5 6 6 6 6 9 9 9 8 7 6 8 9 10 9 7 7 6 8 9 10 11 9 8 7 5 8 7 7 8 9 8 8 8 8 9 8 8 8 8 8 8 9 8 8 7 7 8 9 9 7
Wind_Direction
1 342 316 300 44 101 65 2 115 308 73 99 359 29 191 134 211 81 143 322 54 284 251 14 28 56 123 160 138 138 146 133 206 133 210 237 146 139 140 131 127 126 134 141 134 129 128 138 133 134 128 124 124 127 120 112 105 102 100 96 94 92 91 91 93 92 93 97 101 105 105 103 105 105 91 85 86 86 86 85 84 86 86 86 87 86 87 90 92 93 93 90 78 73 77 83 89
360 336 314 290 192 85 260 126 96 355 43 55 184 99 214 300 55 138 145 151 193 158 219 85 68 80 88 114 129 125 31 359 192 182 24 88 122 120 140 140 139 137 139 142 135 126 126 135 134 134 131 131 133 127 117 113 110 104 101 99 95 92 94 95 95 97 96 97 99 98 101 100 94 96 95 95 90 88 86 88 88 89 90 90 90 89 90 93 96 96 94 84 73 67 71 80 91
345 358 350 22 23 80 84 38 252 62 91 107 276 208 322 64 127 215 221 160 177 145 129 99 100 83 77 54 32 69 237 332 84 69 98 153 126 179 146 140 136 134 139 141 134 130 133 147 141 136 137 134 132 126 119 116 113 107 103 101 100 98 96 98 97 94 96 97 100 104 104 103 107 101 93 90 91 92 90 89 91 91 91 90 86 88 93 96 99 99 95 82 71 65 62 78 90
38 7 103 60 244 28 69 28 92 124 118 197 105 285 146 148 175 186 220 222 190 129 183 76 64 263 106 59 125 87 74 113 309 146 133 175 187 146 142 136 130 127 128 134 137 136 139 153 139 137 135 135 133 125 123 120 115 111 106 103 101 101 99 96 98 100 102 99 97 100 103 104 105 102 95 90 91 90 91 91 89 93 95 92 90 92 97 100 100 98 92 80 69 66 68 79 93
42 306 91 97 106 352 105 149 137 100 140 190 158 267 225 199 160 201 249 267 287 204 81 119 75 352 116 127 139 133 206 152 134 180 125 138 125 140 135 134 133 132 138 141 140 140 151 154 144 141 138 135 129 128 126 123 118 114 110 107 106 104 100 99 102 103 102 101 101 101 103 107 108 98 96 97 92 93 89 90 90 87 93 97 94 92 96 101 102 98 90 73 69 68 72 86 95
72 39 354 86 347 171 49 51 53 93 217 155 118 211 214 213 157 186 180 253 253 26 128 71 148 173 27 345 184 117 159 128 200 145 141 163 144 141 142 141 136 139 143 139 146 145 151 154 148 147 140 133 131 130 128 126 121 116 113 110 109 108 107 106 103 105 106 109 109 105 103 105 106 106 103 97 96 96 96 92 95 97 94 91 93 96 102 106 104 92 84 72 70 69 79 88 92
316 34 352 24 8 51 184 124 122 160 288 152 170 174 188 202 205 134 160 100 337 49 355 132 113 87 77 290 24 27 284 237 123 184 147 154 138 142 144 145 142 141 144 148 147 145 152 155 155 144 136 136 132 132 132 127 123 118 115 114 114 112 111 111 110 110 110 109 109 109 109 107 107 106 106 103 104 105 101 97 97 94 92 90 90 95 103 107 103 94 83 77 74 71 81 89 92
140 116 287 103 236 53 50 170 154 162 7 160 205 147 191 196 170 148 164 98 193 103 26 119 128 98 209 30 151 269 332 168 208 122 131 142 141 144 146 147 143 145 147 149 149 148 153 156 149 141 142 137 135 134 131 129 125 121 119 118 116 115 114 113 115 114 113 114 114 114 114 114 114 106 108 110 108 104 103 101 99 94 94 95 94 99 108 109 102 95 83 79 75 72 80 89 90
352 83 27 66 55 17 77 79 6 220 340 79 152 269 178 180 171 139 151 217 90 103 116 142 172 89 211 49 60 271 305 344 121 124 138 144 147 150 148 149 144 146 148 151 151 151 151 152 144 144 140 139 138 134 134 132 131 127 122 118 119 119 118 116 115 115 114 114 114 115 115 115 113 111 112 111 112 106 104 103 99 99 99 98 102 105 110 111 104 94 81 78 75 72 74 85 89
6 79 277 145 127 57 60 11 83 167 169 220 161 181 182 186 182 159 135 101 162 124 184 133 106 121 141 112 37 323 189 7 122 124 145 150 150 149 147 150 147 145 148 152 155 154 153 154 146 145 144 142 138 136 136 137 135 132 128 126 127 120 119 120 118 118 117 115 114 112 113 111 111 113 118 121 115 112 111 108 102 102 100 100 101 105 108 110 101 88 81 76 72 71 74 79 83
314 12 143 72 28 106 135 218 269 22 136 11 291 212 190 166 137 138 133 146 154 137 116 169 59 118 101 180 211 255 284 235 140 151 156 150 147 149 144 146 146 147 151 155 157 156 156 155 152 149 149 145 141 140 139 140 140 140 134 133 129 122 121 121 120 118 117 115 113 113 112 114 116 114 107 110 114 113 112 111 111 110 108 107 109 110 112 113 104 89 82 72 71 72 74 77 81
352 345 10 110 132 153 209 142 174 259 315 39 181 235 203 154 110 102 110 121 229 137 166 130 179 146 61 126 274 301 321 212 159 153 157 144 141 148 141 145 146 153 153 154 154 156 156 156 151 152 150 146 144 144 143 144 145 139 138 137 133 126 125 123 121 119 119 119 117 114 112 109 113 118 115 112 115 113 114 116 116 113 108 108 111 113 113 114 103 87 77 73 72 72 76 80 81
104 95 79 84 215 95 159 103 196 89 3 250 172 236 142 126 163 165 172 118 150 121 311 234 139 91 122 174 273 310 220 210 200 158 157 139 143 144 141 146 152 151 150 151 154 155 156 156 150 152 151 147 143 145 146 142 138 138 143 141 136 131 130 128 126 125 123 121 120 117 106 93 91 97 108 118 118 115 118 118 118 115 117 113 114 117 118 110 95 85 76 74 73 75 77 80 80
112 180 119 87 34 116 129 149 70 131 261 245 255 250 165 132 212 165 129 120 212 145 245 168 131 127 96 69 261 208 228 214 218 201 156 123 132 141 146 147 149 151 152 154 158 157 158 157 154 150 147 147 146 145 148 143 140 142 144 140 138 136 134 132 131 131 128 122 115 107 101 98 98 102 104 105 105 103 111 116 112 113 116 116 114 114 116 102 96 82 77 74 75 76 79 79 79
277 119 82 120 67 84 221 123 182 148 226 187 238 140 74 27 112 144 156 140 228 225 306 121 171 103 228 148 247 202 200 203 199 199 155 109 115 141 145 148 152 153 154 157 158 158 163 161 154 137 150 150 150 149 152 146 142 144 144 144 141 139 137 136 132 126 125 124 120 113 105 98 95 94 87 76 76 79 78 94 109 108 112 111 110 112 113 104 86 78 75 72 72 74 76 77 77
152 81 81 59 319 123 255 100 72 111 213 174 269 137 83 338 158 121 244 145 184 344 40 198 24 267 157 171 206 187 183 181 186 171 139 115 108 134 144 150 152 161 160 159 163 168 162 163 158 139 157 158 155 153 148 143 144 147 148 145 143 142 140 137 132 131 132 129 125 121 117 113 110 109 109 108 107 105 104 109 110 118 121 119 115 116 114 101 85 80 74 69 66 66 67 69 71
55 80 353 31 72 218 237 133 146 193 227 248 278 169 144 214 267 238 97 107 112 322 45 360 308 359 164 204 249 144 161 159 150 147 138 129 128 142 147 152 155 160 167 170 168 171 168 165 156 162 169 161 158 153 145 140 151 147 147 145 143 142 140 139 134 130 129 129 126 124 119 117 120 121 120 126 121 123 128 127 129 132 132 131 129 127 123 114 106 95 84 76 72 66 58 57 58
61 106 114 53 198 87 196 158 187 216 135 214 192 196 115 138 304 287 61 34 71 28 54 325 10 24 313 292 135 134 146 152 162 155 173 163 150 155 169 172 166 176 174 175 183 172 171 172 171 172 168 169 163 157 150 142 146 150 148 145 140 141 139 133 132 136 135 132 131 126 125 128 127 128 130 128 124 128 129 133 134 137 138 139 139 137 133 131 121 111 100 93 88 80 71 66 55
106 113 85 209 202 256 157 211 196 132 194 179 186 166 151 206 143 228 105 219 116 72 2 11 20 359 24 63 124 133 149 157 165 174 175 176 173 171 176 174 179 168 181 182 186 180 176 174 176 174 175 172 167 162 157 140 154 151 152 150 142 141 142 139 141 140 142 142 142 133 132 135 132 130 131 131 132 131 133 134 134 137 142 144 138 139 138 135 126 117 110 106 102 99 95 99 88
216 116 107 249 207 217 196 149 183 246 159 153 149 215 143 224 152 98 176 173 121 160 157 339 37 202 146 137 143 148 156 164 172 175 184 186 184 173 175 181 185 186 183 186 180 180 178 180 180 179 178 175 170 168 159 154 158 151 149 149 133 145 150 149 148 150 150 149 142 140 132 125 119 116 113 111 111 112 124 124 127 132 131 131 138 136 137 132 120 110 105 98 92 89 96 98 98
233 72 159 217 198 101 339 135 263 279 163 154 152 99 167 256 202 158 164 122 254 256 223 167 198 179 178 174 161 160 162 167 178 186 190 192 195 192 188 185 187 184 181 170 175 185 184 180 180 183 180 177 174 170 165 163 163 155 157 151 147 147 157 152 154 156 158 153 149 143 133 123 117 115 117 108 102 109 112 117 117 118 125 136 132 118 92 78 70 74 70 70 68 74 75 71 84
84 101 221 171 105 81 254 292 344 81 89 108 124 133 214 109 69 138 150 158 219 212 221 221 179 167 160 172 180 168 171 174 181 187 197 194 192 195 194 197 164 162 155 178 188 183 186 184 182 181 180 182 179 175 173 171 170 166 161 165 156 162 163 159 161 166 164 158 153 145 132 128 130 130 130 129 123 125 125 127 130 129 126 134 111 102 78 76 64 58 63 63 52 61 67 61 53
112 310 276 218 218 144 215 82 338 143 108 127 140 196 98 137 221 183 176 184 233 220 203 198 165 174 178 159 157 172 177 183 186 193 195 199 200 201 198 190 179 182 183 190 182 187 183 184 184 177 184 181 184 177 174 171 181 173 169 171 166 171 168 165 171 172 172 165 159 153 146 148 147 150 147 148 151 149 150 153 152 153 150 147 137 121 102 92 89 85 79 78 74 76 74 73 74
105 185 274 5 112 127 178 118 52 95 124 164 192 92 145 143 186 150 191 243 233 255 206 194 166 147 138 156 180 177 183 185 193 196 195 197 194 196 194 191 195 177 180 187 186 186 184 188 185 179 184 181 184 179 177 178 182 176 175 169 182 180 173 175 175 175 171 173 166 163 159 157 158 159 163 159 163 159 165 167 162 159 158 160 143 128 121 111 105 103 105 96 91 83 91 83 86
110 111 250 246 40 331 344 93 64 59 55 343 112 125 214 172 182 81 241 237 249 265 34 99 134 145 160 167 179 191 192 198 201 202 208 220 213 206 205 207 185 179 192 196 192 188 190 187 184 187 185 185 184 181 183 182 184 181 176 177 185 180 184 181 176 172 176 177 171 167 164 162 165 165 168 169 160 170 166 167 166 168 166 167 146 135 133 128 120 122 117 113 110 105 101 98 98
161 167 150 84 75 316 322 50 40 77 88 48 85 268 303 258 247 240 232 243 224 117 76 119 131 147 170 183 186 185 195 202 204 199 206 205 201 194 210 202 190 194 200 194 191 199 190 184 186 190 188 187 184 183 189 185 187 186 184 183 184 178 191 182 176 180 181 177 175 176 174 170 172 171 171 167 168 172 171 167 168 171 173 172 155 145 148 136 136 127 121 122 119 118 109 117 108
148 106 115 123 87 89 323 143 284 322 70 315 166 266 335 333 53 281 285 232 109 121 136 155 147 170 183 186 191 196 192 202 202 204 198 204 210 206 212 204 201 205 193 200 200 199 191 187 194 190 188 185 183 189 190 191 187 191 188 185 184 184 187 182 183 185 184 185 179 179 177 178 171 173 170 171 174 170 171 171 175 171 177 178 166 148 149 144 140 139 143 139 134 125 121 125 117
98 131 89 30 345 359 31 68 250 44 4 106 129 165 330 313 77 243 245 231 167 154 173 172 186 181 188 194 194 200 205 211 206 175 200 195 206 206 207 203 208 200 195 205 201 192 190 198 195 193 188 185 185 192 190 193 192 192 188 187 188 185 185 186 185 189 192 187 181 181 179 180 176 175 173 174 174 173 176 177 174 174 185 177 165 151 148 144 137 129 123 123 124 118 117 104 100
147 109 84 324 9 40 298 148 239 85 264 168 154 70 304 249 227 239 307 12 172 170 180 194 200 204 198 197 200 203 214 208 193 206 213 209 206 202 206 207 200 199 209 202 194 187 198 196 196 196 188 189 190 191 191 194 193 191 189 191 189 182 188 186 187 190 193 189 184 183 182 180 181 176 179 177 176 178 177 174 177 186 183 172 162 155 143 138 124 120 109 113 110 109 110 99 84
114 42 126 24 7 352 294 305 7 97 253 78 307 265 266 252 246 263 299 18 89 186 205 211 217 215 211 202 204 216 223 201 207 214 216 215 212 207 212 211 203 203 202 199 183 198 197 195 196 193 192 192 195 194 190 193 193 192 192 191 188 185 189 192 192 189 188 191 190 188 187 183 184 183 176 180 177 177 179 182 181 183 181 165 156 154 149 150 138 134 138 129 135 134 132 133 125
150 223 62 116 68 252 299 181 194 147 156 94 99 195 283 274 276 278 287 242 169 210 223 219 227 233 229 219 220 222 227 210 212 215 218 220 217 215 216 215 207 207 200 198 199 201 190 196 191 198 193 195 193 197 192 194 190 189 188 191 190 190 191 195 192 190 189 192 192 193 192 187 189 186 182 178 181 179 181 185 190 188 175 163 161 167 152 153 146 148 151 138 140 131 131 139 135
47 68 289 326 145 275 295 323 156 160 310 70 88 310 245 271 284 291 299 188 177 206 221 230 228 235 235 232 230 235 235 221 231 233 225 222 215 216 215 215 206 204 203 203 204 193 198 198 194 198 192 197 197 198 194 193 190 188 187 188 190 193 195 197 193 191 190 191 194 197 196 192 191 191 185 183 182 184 181 186 191 186 179 169 169 165 155 157 157 150 165 151 144 149 139 130 130
1 105 242 243 89 250 348 166 326 215 118 353 157 223 322 317 255 276 339 83 145 213 247 247 239 233 231 227 225 229 240 243 235 232 229 220 220 217 216 215 205 206 205 199 197 194 200 199 195 198 196 199 197 197 194 192 188 190 188 186 189 190 196 199 195 191 194 193 192 198 196 195 194 192 189 187 189 190 186 186 188 187 180 177 171 170 170 164 157 156 165 173 154 151 151 140 133
275 22 187 206 159 207 275 300 350 26 139 229 24 196 237 241 277 297 313 39 137 234 252 252 246 242 237 235 233 234 234 236 232 226 226 217 219 215 217 213 208 206 207 203 198 193 198 195 196 199 200 198 196 194 192 189 191 190 191 191 188 192 198 196 195 193 199 199 197 199 195 197 194 195 192 191 194 194 191 185 185 184 181 181 176 174 176 167 164 161 161 170 160 151 156 152 146
201 220 125 286 338 181 217 143 237 58 18 200 330 231 270 269 278 291 284 297 240 246 240 242 240 241 247 244 241 240 239 239 238 229 223 216 217 218 216 214 210 206 208 206 199 201 195 195 196 202 200 197 198 190 183 182 182 193 194 191 198 203 201 199 193 199 199 197 201 199 197 197 198 196 194 194 195 192 194 193 185 181 181 181 177 179 173 168 163 166 162 158 154 163 156 151 141
185 175 169 151 150 218 220 242 275 151 233 270 233 230 251 275 286 280 283 258 217 247 264 270 263 255 252 249 252 247 243 246 244 235 227 220 215 213 210 208 207 205 207 200 199 197 198 194 195 200 203 196 190 183 167 176 179 187 193 207 217 212 204 201 203 203 195 201 199 197 199 199 197 201 196 194 198 193 192 189 187 183 185 181 179 178 176 174 170 165 170 160 153 131 126 138 137
116 92 104 169 163 274 279 284 256 140 89 236 237 254 257 267 263 266 268 292 257 251 253 252 252 253 251 250 246 246 246 244 253 234 233 225 224 220 217 201 206 206 207 198 194 198 198 197 186 200 199 187 182 182 183 182 187 187 201 202 211 204 204 200 205 205 203 204 198 200 199 200 197 200 205 196 196 196 198 190 181 184 186 187 187 185 178 180 179 177 170 167 159 150 151 156 157
124 117 109 104 109 166 236 211 330 308 151 288 8 309 265 255 267 266 268 281 265 242 242 247 249 245 246 245 250 246 245 274 278 268 248 233 228 221 207 199 190 193 214 201 199 201 199 196 196 200 182 190 193 191 191 194 196 197 194 205 203 196 196 198 208 205 207 201 202 201 201 201 200 201 201 206 202 195 201 199 188 183 184 190 193 190 183 181 179 175 159 155 180 163 164 171 167
45 142 156 99 265 239 301 296 312 297 82 263 357 331 283 269 261 266 254 242 245 244 226 239 242 252 249 248 249 255 263 261 259 252 257 241 231 224 202 205 205 207 204 200 205 195 192 196 202 197 191 191 198 195 189 202 203 200 195 196 189 195 225 224 220 202 194 200 203 203 201 201 202 203 200 203 207 203 199 200 197 185 186 184 187 193 188 181 187 182 172 169 164 182 158 176 177
107 92 88 226 244 96 291 283 343 349 78 295 342 318 288 285 266 258 259 253 254 244 231 242 230 242 244 240 238 247 251 256 258 247 244 245 242 229 213 214 214 208 206 205 199 197 196 200 199 197 197 197 198 199 200 205 196 181 156 134 171 161 188 184 189 195 203 208 214 203 207 203 201 203 199 199 205 208 207 199 193 191 191 185 188 189 188 190 180 184 190 188 165 163 172 188 200
4 121 125 130 167 223 157 253 264 322 28 54 360 317 297 332 342 332 310 287 270 286 296 264 259 242 252 276 286 237 245 249 257 267 254 243 238 224 208 212 195 199 207 201 196 196 196 199 200 194 194 196 198 194 193 174 140 135 100 60 69 82 44 142 183 227 213 211 211 208 211 199 203 203 202 201 198 204 206 211 202 195 191 192 193 194 194 195 187 185 184 185 183 174 176 183 197
335 229 171 191 165 136 275 353 59 18 352 335 29 358 301 296 296 259 282 333 310 292 322 281 269 258 245 249 246 254 256 250 244 256 257 236 230 244 246 217 197 211 210 209 200 200 193 198 193 190 188 188 191 188 180 168 180 175 163 171 190 195 212 194 205 212 203 205 213 209 201 206 207 207 203 205 209 203 200 201 203 207 203 197 196 194 193 192 193 192 192 188 190 190 179 172 191
102 265 162 159 140 130 129 24 69 337 176 314 57 127 273 304 284 283 292 336 300 319 269 276 284 277 265 247 268 269 248 264 266 267 274 258 236 223 226 211 211 207 221 194 188 195 197 191 188 187 188 190 186 182 173 173 182 189 194 201 205 206 216 226 228 224 201 216 199 203 211 207 213 211 211 208 208 213 212 205 201 194 202 208 197 196 198 196 194 195 188 193 194 182 167 183 191
237 242 124 115 104 133 165 110 141 211 251 297 39 111 215 302 286 245 290 323 312 320 312 295 284 298 289 284 274 263 256 240 240 251 253 244 232 210 216 215 205 214 194 159 191 188 191 192 185 190 189 187 187 175 180 183 190 193 199 209 211 216 216 227 204 219 201 182 203 215 210 215 210 213 213 213 213 213 216 213 213 220 204 195 197 207 200 197 192 198 195 196 192 191 187 186 187
219 203 136 149 148 155 115 95 113 38 45 285 327 279 271 258 264 300 352 322 303 301 283 287 297 305 303 296 280 273 272 254 229 240 251 248 236 231 234 226 227 211 172 191 193 196 192 188 187 185 191 188 190 183 184 192 195 192 199 202 217 224 224 230 193 203 204 196 210 213 213 217 218 219 218 215 215 218 220 224 219 214 217 226 209 205 203 196 195 190 192 197 201 201 198 199 184
259 128 90 87 77 70 96 97 83 343 61 267 253 200 209 277 278 333 326 288 285 266 279 288 299 301 320 331 324 305 300 310 275 252 275 281 270 266 253 263 204 215 214 198 201 169 184 182 192 189 203 192 190 190 191 194 196 189 200 208 216 223 215 225 187 210 211 199 220 216 216 216 216 220 223 223 218 216 215 219 226 226 222 216 208 214 210 201 198 196 194 195 196 197 202 201 201
126 79 67 26 37 26 23 61 87 57 290 250 238 272 162 287 269 227 162 218 198 265 303 317 326 352 355 353 341 323 331 339 350 336 331 314 299 268 293 227 257 283 233 196 201 193 191 193 197 204 208 195 192 195 191 198 197 198 207 209 215 220 211 205 209 223 210 212 222 221 215 218 211 219 217 223 223 220 222 223 223 226 226 221 214 212 202 197 198 196 195 197 203 202 202 204 208
112 86 119 54 346 12 28 346 36 148 269 266 249 206 133 196 291 273 249 280 236 211 306 323 332 328 330 324 312 310 316 312 319 332 337 344 355 14 22 302 309 283 286 269 265 247 218 213 204 215 218 204 197 196 196 203 200 208 213 211 215 217 205 204 213 219 207 213 215 221 217 219 222 223 221 225 224 216 218 222 227 236 233 227 221 214 215 209 201 197 194 195 197 202 205 204 206
79 83 57 115 252 36 297 16 257 221 211 258 322 166 9 236 236 272 278 257 256 172 219 282 321 311 310 294 281 286 289 303 303 302 324 332 324 312 312 292 331 353 351 344 319 296 272 244 225 221 230 208 205 197 201 206 206 212 212 214 218 212 210 211 216 222 210 214 212 220 208 220 216 221 222 223 223 214 221 227 227 232 240 239 230 214 213 203 193 191 195 199 201 197 200 201 208
107 141 141 109 139 149 245 277 242 305 288 265 299 292 265 256 272 233 242 259 170 201 225 247 233 241 285 282 310 312 304 291 297 306 300 292 291 303 319 328 328 311 312 307 284 258 243 238 232 227 238 214 211 207 209 209 215 215 212 215 215 206 217 213 219 221 216 212 206 216 214 215 215 220 215 221 215 216 220 229 232 234 243 253 247 238 222 208 198 194 195 204 212 210 200 202 208
205 112 153 179 148 158 208 192 212 219 212 290 281 60 233 90 234 297 232 250 261 270 242 255 234 220 241 291 282 291 299 319 326 301 287 269 269 261 266 264 264 252 252 261 250 236 232 241 232 233 243 233 216 218 215 220 223 219 218 218 217 211 217 217 222 219 214 212 211 216 221 218 221 224 219 219 205 211 218 219 225 231 233 239 244 237 232 225 213 202 192 198 213 215 213 208 213
261 150 80 86 227 141 159 208 154 228 329 339 232 216 195 165 273 284 236 280 292 192 281 322 321 335 352 345 320 302 305 307 297 297 291 276 260 271 279 280 268 263 252 249 245 235 227 233 227 230 231 232 223 225 227 225 228 224 221 219 221 217 220 223 228 220 222 212 213 213 222 218 222 221 220 205 210 206 213 215 216 225 230 232 231 229 222 216 214 210 213 212 208 200 209 209 212
230 115 207 210 154 102 89 46 4 102 34 255 153 301 288 299 319 286 322 331 267 360 2 20 317 298 319 312 293 306 314 319 318 299 282 292 300 272 251 249 257 253 249 237 234 225 226 229 229 237 239 240 233 229 233 230 233 228 229 225 222 221 219 221 223 222 219 216 216 219 220 221 218 216 216 204 208 208 212 213 215 218 222 227 231 229 223 219 215 208 202 208 226 219 213 211 209
96 187 235 190 122 113 135 218 347 56 199 267 100 237 299 6 287 321 23 346 292 4 41 352 358 331 279 267 289 316 322 310 290 286 287 284 282 278 269 253 241 244 243 246 240 232 234 233 230 236 241 238 238 233 234 229 230 233 236 233 231 227 226 230 229 229 219 219 225 224 223 223 219 212 206 206 203 207 210 212 218 220 219 220 228 234 232 226 218 228 223 216 211 201 209 214 213
143 196 199 116 257 229 311 91 258 155 274 272 288 258 255 196 240 315 289 321 295 30 49 98 57 37 22 358 342 337 340 349 339 321 305 294 287 281 275 269 261 250 247 246 247 231 237 236 234 230 236 232 233 230 232 235 228 234 233 235 234 235 235 237 236 236 226 226 228 224 222 225 219 207 205 201 204 206 205 210 215 222 218 220 221 231 234 235 222 218 212 219 219 214 214 216 214
46 76 81 118 101 169 137 201 174 127 244 47 290 39 260 186 211 200 241 255 245 113 117 138 140 183 323 343 337 334 321 300 285 294 296 288 281 267 264 266 269 255 253 249 246 241 236 232 229 234 242 245 245 237 226 234 227 231 241 239 237 234 237 236 232 225 230 233 234 228 228 224 219 205 207 199 202 201 200 205 210 215 220 220 215 223 228 235 234 232 220 215 212 204 211 214 213
160 141 196 177 33 228 110 68 135 178 178 182 259 307 269 263 207 176 208 222 235 149 155 180 235 288 294 278 287 283 256 262 271 267 280 296 298 298 284 266 266 278 265 255 231 229 236 232 238 235 235 240 238 236 223 235 217 231 232 237 239 233 239 233 238 228 233 237 234 230 229 226 210 220 198 202 200 199 198 203 204 210 214 215 214 215 216 221 227 233 231 221 210 205 212 218 212
178 173 196 179 131 141 158 255 33 106 134 237 151 264 263 252 187 191 182 208 167 164 153 192 222 264 271 277 272 220 281 286 298 304 292 313 301 276 281 294 277 279 279 267 263 258 255 240 242 247 249 250 245 242 226 232 225 232 230 236 234 231 231 228 234 235 236 240 235 229 230 225 225 225 201 208 205 197 196 196 203 209 213 217 219 216 209 207 217 223 226 216 211 206 213 216 205